Regional Weather Roundup
Issued by NWS

Home | Current Version | Previous Version | Graphics & Text | Print | Product List | Glossary On
Versions: 1 2 3 4 5 6 7 8 9 10 11 12 13 14 15 16 17 18 19 20 21 22 23 24 25 26 27 28 29 30 31 32 33 34 35 36 37 38 39 40 41 42 43 44 45 46 47 48 49 50
000
ASUS43 KLSX 160707
RWRMO

WEATHER SUMMARY FOR MISSOURI
NATIONAL WEATHER SERVICE SPRINGFIELD MO
100 AM CST MON JAN 16 2017

NOTE: "FAIR" INDICATES FEW OR NO CLOUDS BELOW 12,000 FEET WITH NO
       SIGNIFICANT WEATHER AND/OR OBSTRUCTIONS TO VISIBILITY.
       CURRENT SKY AND/OR WEATHER CONDITIONS ARE NOT AVAILABLE FOR
       CHILLICOTHE AND FARMINGTON.

MOZ001>031-035>038-043-044-053-054-160800-
...NORTHERN AND WESTERN MISSOURI...

CITY           SKY/WX    TMP DP  RH WIND       PRES   REMARKS
KANSAS CTY INT DRZL/FOG  33  31  92 E7        30.07F VSB 1/2 WCI  27
KANSAS C DTWN  LGT RAIN  33  33 100 E9        30.08F VSB 3/4 WCI  25
LEE`S SUMMIT   FOG       33  32  96 E9        30.07F VSB 1/2 WCI  25
ST JOSEPH      MIX PCPN  32  32 100 E6        30.09F FOG     WCI  26
CHILLICOTHE      N/A     32  32 100 NE6       30.15F WCI  26
KIRKSVILLE     FOG       31  31 100 E7        30.16F VSB 1/4 WCI  24

$$
MOZ066>068-077>081-088>096-101>105-160800-
...SOUTHWEST MISSOURI...

CITY           SKY/WX    TMP DP  RH WIND       PRES   REMARKS
SPRINGFIELD    CLOUDY    44  43  96 SE16      30.04F FOG
JOPLIN         LGT RAIN  47  47 100 MISG      29.98F FOG
BRANSON        FOG       41  41 100 SE14      30.08S VSB<1/4

$$
MOZ032>034-039>042-045>050-055>058-069>072-160800-
...CENTRAL MISSOURI...

CITY           SKY/WX    TMP DP  RH WIND       PRES   REMARKS
COLUMBIA       FOG       35  35 100 E8        30.13F VSB 1/2 WCI  29
JEFFERSON CITY CLOUDY    36  35  96 E5        30.15F
ROLLA          CLOUDY    34  34 100 SE10      30.11F FOG     WCI  26
SEDALIA        FOG       36  35  96 E9        30.10F VSB 3/4 WCI  29
WHITEMAN AFB   DRIZZLE   35  35 100 NE3       30.08F FOG
WARRENSBURG    FOG       34  32  93 NE7       30.09F VSB 1/2 WCI  28
OSAGE BEACH    CLOUDY    36  36 100 E6        30.12F

$$
MOZ051-052-059>065-160800-
...EAST CENTRAL MISSOURI...

CITY           SKY/WX    TMP DP  RH WIND       PRES   REMARKS
ST LOUIS INTL  FOG       38  36  92 E7        30.18F VSB 1/4
SPIRIT OF STL  FOG       37  37 100 SE3       30.19F VSB 1
ST CHARLES     FOG       36  36 100 E8        30.19F VSB 1/2 WCI  30

$$
MOZ072>076-082>087-097>100-106>115-160800-
...SOUTH CENTRAL AND SOUTHEAST MISSOURI...

CITY           SKY/WX    TMP DP  RH WIND       PRES   REMARKS
CAPE GIRARDEAU FOG       41  40  96 NE3       30.20F VSB 3/4
FARMINGTON     FOG       36  36 100 E3        30.18S VSB 1/2
POPLAR BLUFF   FOG       41  41 100 NE7       30.18F VSB 3/4
WEST PLAINS    FOG       41  40  96 E9        30.12F VSB 1/2

$$


USA.gov is the U.S. government's official web portal to all federal, state and local government web resources and services.